Location: ??????
(55.2000°N, 38.3000°E)
Time: 17:59:06
(UTC+00:00)

Cosmos 2333 Rocket - Pass Details

Date: 15 November 2025
Orbit: 837 x 865 km, 70.8° (Epoch: 14 December)

Event Time Altitude Azimuth Distance (km) Brightness Sun altitude
Exits shadow 03:59:29 - 318° (NW) 2,776 4.3 -8.5°
Reaches altitude 10° 04:00:33 10° 325° (NW) 2,513 4.2 -8.4°
Maximum altitude 04:04:20 18° 6° (N) 2,030 4.1 -7.9°
Drops below altitude 10° 04:08:08 10° 48° (NE) 2,517 5.0 -7.4°
Sets 04:11:31 0° 67° (ENE) 3,455 6.1 -6.9°
